Weather History for KVAD - December, 2012

Change the Weather History Date:

Tuesday, December 18, 2012

  Actual Average Record
Temperature  
Mean Temperature 56 °F -  
Max Temperature 68 °F 60 °F 79 °F (2008)
Min Temperature 42 °F 41 °F 26 °F (2000)
Degree Days  
Heating Degree Days 10    
Growing Degree Days 6 (Base 50)    
Moisture  
Dew Point 52 °F    
Average Humidity 84    
Maximum Humidity 100    
Minimum Humidity 28    
Precipitation  
Precipitation 0.00 in - - ()
Sea Level Pressure  
Sea Level Pressure 29.93 in    
Wind  
Wind Speed 7 mph (West)    
Max Wind Speed 13 mph    
Max Gust Speed 21 mph    
Visibility 10 miles    
Events      
Averages and records for this station are not official NWS values.
T = Trace of Precipitation, MM = Missing Value Source: NWS Daily Summary

Daily Weather History Graph

Daily Weather History Graph

Search for Another Location

Airport or City:

Trip Planner

Search our weather history database for the weather conditions in past years. The results will help you decide how hot, cold, wet, or windy it might be!

Date:

Astronomy

Dec. 18, 2012 Rise Set
Actual Time 7:25 AM EST 5:33 PM EST
Civil Twilight 6:58 AM EST 6:00 PM EST
Nautical Twilight 6:28 AM EST 6:30 PM EST
Astronomical Twilight 5:59 AM EST 7:00 PM EST
Moon 11:25 AM EST (12/18) 11:35 PM EST (12/18)
Length of Visible Light 11h 01m
Length of Day
10h 08m
Waxing Crescent, 34% of the Moon is Illuminated
Dec 18
Waxing Crescent
Dec 20
First Quarter
Dec 28
Full
Jan 4
Last Quarter
Jan 11
New

Hourly Weather History & Observations

Time (EST) Temp. Dew Point Humidity Pressure Visibility Wind Dir Wind Speed Gust Speed Precip Events Conditions
12:26 AM 62.6 °F 60.8 °F 94% 29.82 in 10.0 mi SW 5.8 mph - N/A   Mostly Cloudy
12:27 AM 62.6 °F 60.8 °F 94% 29.82 in 10.0 mi SW 6.9 mph - N/A   Mostly Cloudy
12:36 AM 62.6 °F 60.8 °F 94% 29.82 in 10.0 mi SW 8.1 mph - N/A   Mostly Cloudy
12:53 AM 62.6 °F 60.8 °F 94% 29.82 in 10.0 mi WSW 5.8 mph - N/A   Mostly Cloudy
12:55 AM 62.4 °F 60.8 °F 94% 29.82 in 10.0 mi WSW 4.6 mph - N/A   Scattered Clouds
1:55 AM 61.7 °F 60.8 °F 97% 29.83 in 10.0 mi SW 8.1 mph - N/A   Clear
2:55 AM 60.6 °F 60.3 °F 99% 29.83 in 10.0 mi SW 6.9 mph - N/A   Clear
3:55 AM 60.1 °F 59.9 °F 99% 29.85 in 10.0 mi West 6.9 mph - N/A   Clear
3:58 AM 60.8 °F 59.0 °F 94% 29.85 in 10.0 mi West 8.1 mph - N/A   Partly Cloudy
4:07 AM 60.8 °F 60.8 °F 100% 29.85 in 10.0 mi West 6.9 mph - N/A   Mostly Cloudy
4:18 AM 60.8 °F 60.8 °F 100% 29.85 in 10.0 mi WNW 11.5 mph - N/A   Mostly Cloudy
4:26 AM 60.8 °F 60.8 °F 100% 29.85 in 10.0 mi WNW 12.7 mph - N/A   Mostly Cloudy
4:55 AM 60.4 °F 60.3 °F 99% 29.85 in 10.0 mi West 9.2 mph - N/A   Mostly Cloudy
5:05 AM 60.8 °F 59.0 °F 94% 29.85 in 10.0 mi West 9.2 mph - N/A   Scattered Clouds
5:55 AM 58.3 °F 57.9 °F 99% 29.86 in 10.0 mi West 4.6 mph - N/A   Clear
6:50 AM 59.0 °F 57.2 °F 94% 29.89 in 10.0 mi West 8.1 mph - N/A   Mostly Cloudy
6:55 AM 58.1 °F 57.7 °F 99% 29.90 in 10.0 mi West 9.2 mph - N/A   Mostly Cloudy
6:56 AM 57.2 °F 57.2 °F 100% 29.90 in 10.0 mi West 5.8 mph - N/A   Scattered Clouds
6:58 AM 57.2 °F 57.2 °F 100% 29.90 in 10.0 mi West 6.9 mph - N/A   Mostly Cloudy
7:02 AM 57.2 °F 57.2 °F 100% 29.90 in 10.0 mi West 5.8 mph - N/A   Scattered Clouds
7:43 AM 57.2 °F 57.2 °F 100% 29.92 in 10.0 mi West 8.1 mph - N/A   Mostly Cloudy
7:55 AM 57.7 °F 57.4 °F 99% 29.92 in 10.0 mi West 6.9 mph - N/A   Mostly Cloudy
8:16 AM 57.2 °F 57.2 °F 100% 29.93 in 10.0 mi West 5.8 mph - N/A   Mostly Cloudy
8:30 AM 57.2 °F 57.2 °F 100% 29.94 in 10.0 mi West 5.8 mph - N/A   Scattered Clouds
8:36 AM 59.0 °F 57.2 °F 94% 29.94 in 10.0 mi West 5.8 mph - N/A   Partly Cloudy
8:55 AM 59.2 °F 57.4 °F 94% 29.95 in 10.0 mi West 8.1 mph - N/A   Clear
9:55 AM 61.7 °F 55.6 °F 80% 29.97 in 10.0 mi WNW 9.2 mph - N/A   Partly Cloudy
10:19 AM 62.6 °F 53.6 °F 72% 29.98 in 10.0 mi WNW 11.5 mph - N/A   Mostly Cloudy
10:21 AM 62.6 °F 53.6 °F 72% 29.98 in 10.0 mi West 11.5 mph - N/A   Scattered Clouds
10:55 AM 63.7 °F 51.4 °F 64% 29.98 in 10.0 mi WNW 9.2 mph - N/A   Clear
11:55 AM 66.2 °F 46.8 °F 50% 29.98 in 10.0 mi NW 10.4 mph - N/A   Clear
12:55 PM 67.1 °F 44.1 °F 43% 29.96 in 10.0 mi NW 10.4 mph - N/A   Clear
1:55 PM 68.0 °F 39.7 °F 36% 29.95 in 10.0 mi NW 10.4 mph - N/A   Clear
2:55 PM 68.4 °F 34.3 °F 28% 29.95 in 10.0 mi West 11.5 mph 20.7 mph N/A   Clear
3:55 PM 67.6 °F 34.9 °F 30% 29.96 in 10.0 mi WNW 9.2 mph - N/A   Clear
4:55 PM 65.5 °F 35.6 °F 33% 29.97 in 10.0 mi WNW 6.9 mph - N/A   Clear
5:55 PM 57.7 °F 39.4 °F 50% 29.99 in 10.0 mi WNW 5.8 mph - N/A   Clear
6:55 PM 52.0 °F 41.2 °F 67% 30.01 in 10.0 mi Calm Calm - N/A   Clear
7:55 PM 49.8 °F 39.4 °F 67% 30.02 in 10.0 mi Calm Calm - N/A   Clear
8:55 PM 45.3 °F 41.0 °F 85% 30.03 in 10.0 mi Calm Calm - N/A   Clear
9:55 PM 44.6 °F 43.0 °F 94% 30.04 in 10.0 mi Calm Calm - N/A   Clear
10:03 PM 44.6 °F 42.8 °F 93% 30.04 in 8.0 mi Calm Calm - N/A   Clear
10:26 PM 44.6 °F 41.0 °F 87% 30.04 in 6.0 mi Calm Calm - N/A   Clear
10:28 PM 44.6 °F 41.0 °F 87% 30.04 in 6.0 mi Calm Calm - N/A   Clear
10:31 PM 44.6 °F 41.0 °F 87% 30.04 in 7.0 mi Calm Calm - N/A   Clear
10:55 PM 43.5 °F 41.2 °F 91% 30.05 in 10.0 mi Calm Calm - N/A   Clear
11:55 PM 42.6 °F 40.8 °F 93% 30.06 in 10.0 mi Calm Calm - N/A   Clear